Regional Weather Roundup
Issued by NWS Charleston, SC

Current Version | Previous Version | Text Only | Print | Product List | Glossary Off
Versions: 1 2 3 4 5 6 7 8 9 10 11 12 13 14 15 16 17 18 19 20 21 22 23 24 25 26 27 28 29 30 31 32 33 34 35 36 37 38 39 40 41 42 43 44 45 46 47 48 49 50

000
ASUS42 KCHS 301312
RWRCHS

REGIONAL WEATHER ROUNDUP
NATIONAL WEATHER SERVICE CHARLESTON SC
900 AM EDT SAT MAY 30 2015

NOTE: "FAIR" INDICATES FEW OR NO CLOUDS BELOW 12,000 FEET WITH NO
SIGNIFICANT WEATHER AND/OR OBSTRUCTIONS TO VISIBILITY.

NOT ALL STATIONS ARE QUALITY CONTROLLED BY THE NATIONAL
WEATHER SERVICE. USE DATA WITH CAUTION...ESPECIALLY
DEWPOINT OBSERVATIONS.

SCZ027-030-031-034>040-042>050-301400-
...SOUTHEAST SOUTH CAROLINA...

CITY           SKY/WX    TMP DP  RH WIND       PRES   REMARKS
N CHARLESTON   MOSUNNY   78  70  76 NE6       30.19R
WATERFRONT PAR   N/A     78  71  79 E10       30.15R
MOUNT PLEASANT LGT RAIN  77  72  83 NE5       30.19R
JOHNS ISLAND   PTSUNNY   79  72  78 E9        30.19R
PINOPOLIS      NOT AVBL
MONCKS CORNER  FAIR      77  70  78 E5        30.20R
SUMMERVILLE    FAIR      77  72  83 CALM      30.20S
BEAUFORT MCAS  CLOUDY    78  71  79 NE6       30.18R
BEAUFORT ARPT  CLOUDY    79  72  78 E8        30.17R
HILTON HEAD IS PTSUNNY   81  72  74 NE8       30.18R
WALTERBORO     SUNNY     75  70  83 E8        30.20R
ALLENDALE      FAIR      73  70  88 CALM      30.19R

...SOUTHERN MIDLANDS AND PEE DEE...

CITY           SKY/WX    TMP DP  RH WIND       PRES   REMARKS
GEORGETOWN     NOT AVBL
KINGSTREE      NOT AVBL
ORANGEBURG     PTSUNNY   70  68  93 NE5       30.21R
BARNWELL       FAIR      75  72  88 E6        30.21R
AIKEN          PTSUNNY   70  66  88 NE3       30.24S
MANNING        FAIR      72  68  88 CALM      30.21S
COLUMBIA       CLOUDY    72  68  87 E5        30.21R
SUMTER         MOSUNNY   74  69  84 E6        30.20S
FLORENCE       MOSUNNY   77  69  76 SE7       30.21S
MYRTLE BEACH   PTSUNNY   79  66  65 SE9       30.22R
N MYRTLE BEACH MOSUNNY   78  67  68 E7        30.21R

$$

GAZ063-065-086>088-099>101-113>116-118-119-134>141-150-301400-
...SOUTHEAST GEORGIA...

CITY           SKY/WX    TMP DP  RH WIND       PRES   REMARKS
SAVANNAH ARPT  PTSUNNY   76  70  82 NE6       30.17R
HUNTER AAF     MOSUNNY   75  73  93 NE6       30.15R
FORT STEWART   SUNNY     78  69  76 E7        30.14R HAZE
STATESBORO     SUNNY     75  75 100 E5        30.18S
SYLVANIA       SUNNY     76  72  86 E6        30.19S
CLAXTON        FAIR      77  72  83 E5        30.18R

...CSRA...CENTRAL AND FAR SOUTHEAST GEORGIA...

CITY           SKY/WX    TMP DP  RH WIND       PRES   REMARKS
THOMSON        MOSUNNY   75  72  88 SE5       30.24S
AUGUSTA-BUSH   SUNNY     74  68  81 SE3       30.19R
AUGUSTA-DANIEL SUNNY     75  67  76 SE7       30.21R
SWAINSBORO     FAIR      77  75  94 E5        30.19S
VIDALIA        PTSUNNY   75  70  83 E7        30.18R
EASTMAN        CLOUDY    75  75  98 E6        30.20S
HAZLEHURST     PTSUNNY   75  74  97 CALM      30.16S
ALMA           CLOUDY    74  70  87 NE3       30.16R
WAYCROSS       SUNNY     77  72  85 E5        30.16R
JESUP          FAIR      81  73  78 E7        30.16R
BAXLEY         FAIR      77  72  83 E6        30.16R
BRUNSWICK      CLOUDY    73  70  88 NE6       30.16R
SAINT SIMONS   NOT AVBL

$$

SCZ027-028-034-036>038-045-046-048>050-GAZ119-141-301400-
...LAKE AND SUPPLEMENTAL COASTAL OBSERVATIONS...

STATION/POSITION TIME  TEMP    WIND        PRES    WAVE   SWELL
                       AIR SEA DIR/SP/G            HT/PER HT/PER/DIR
                 (UTC) (F)     (DEG/KT/KT) (MB)    (FT/S) (FT/S/D)
UPR LAKE MARION  NOT AVBL
WINYAH BAY       NOT AVBL
LAKE MURRAY      1200   69      80/  5/  6 1022.4R
ACE BASIN NERRS  NOT AVBL
FORT PULASKI     1200   77 80   90/ 12/ 14 1021.6R
SAPELO ISLAND    1200   75      50/  4     1021.0R

$$

ANZ835-935-AMZ111-154-330-350-352-354-370-450-454-472-301400-
...C-MAN AND BUOY OBSERVATIONS...

STATION/POSITION TIME  TEMP    WIND        PRES    WAVE   SWELL
                       AIR SEA DIR/SP/G            HT/PER HT/PER/DIR
                 (UTC) (F)     (DEG/KT/KT) (MB)    (FT/S) (FT/S/D)
BUOY 41004       1250   78 79   90/ 12/ 14 1021.4R   5/ 6   3/ 6
BUOY 41008       1250   76 78   60/  8/ 12 1021.2R   3/ 9   3/100/ 9
FOLLY BEACH CMAN 1300   77      80/ 10/ 11 1022.2R
CAPERS NEARSHORE 1208   77      90/ 10/ 14 1021.9R
FRIPP NEARSHORE  1200   78      90/ 10/ 14 1020.9R


STATION/POSITION TIME  TEMP    WIND        PRES    WAVE   SWELL
                       AIR SEA DIR/SP/G            HT/PER HT/PER/DIR
                 (UTC) (F)     (DEG/KT/KT) (MB)    (FT/S) (FT/S/D)
5E ST. MARYS GA  1221      79                N/A     3/ 8
FRYING PAN BUOY  1250   78 75  120/  8/ 10 1023.3R   4/ 9   3/110/ 9
BUOY 41025       1250   76 79  100/  4/  8 1023.9R   4/ 9   3/ 90/ 9
CAPE LOOKOUT NC  1300   76      70/  4/  5 1023.4R
BUOY 41002       1250   75 74   70/ 12/ 14 1021.6R   6/ 9   7/ 70/ 9
BUOY 41010       1220   78 79   90/ 14/ 16 1019.0R
ST AUGUSTINE FL  1300   78 79   70/  5/  6 1020.7R


$$



USA.gov is the U.S. government's official web portal to all federal, state and local government web resources and services.